timestamp,wind_dir_avg,wind_spd_max_dir,wind_spd_avg,wind_spd_gust,battery_voltage,lat,long
2019-02-10 00:00:00+00:00,293.0,298.0,10.59,13.81,,47.59359,-54.27349
2019-02-10 00:10:00+00:00,299.0,293.0,12.9,15.04,,47.59359,-54.27349
2019-02-10 00:20:00+00:00,285.0,290.0,11.84,15.2,,47.59359,-54.27349
2019-02-10 00:30:00+00:00,287.0,289.0,13.4,19.63,,47.59359,-54.27349
2019-02-10 00:40:00+00:00,290.0,291.0,12.3,14.07,,47.59359,-54.27349
2019-02-10 00:50:00+00:00,282.0,282.0,12.35,15.02,,47.59359,-54.27349
2019-02-10 01:00:00+00:00,279.0,293.0,10.86,13.77,,47.59359,-54.27349
2019-02-10 01:10:00+00:00,279.0,284.0,12.38,15.66,,47.59359,-54.27349
2019-02-10 01:20:00+00:00,277.0,282.0,11.1,15.39,,47.59359,-54.27349
2019-02-10 01:30:00+00:00,273.0,264.0,12.47,16.08,,47.59359,-54.27349
2019-02-10 01:40:00+00:00,278.0,290.0,10.02,13.57,,47.59359,-54.27349
2019-02-10 01:50:00+00:00,274.0,276.0,11.78,15.48,,47.59359,-54.27349
2019-02-10 02:00:00+00:00,281.0,284.0,10.95,13.75,,47.59359,-54.27349
2019-02-10 02:10:00+00:00,281.0,277.0,8.22,10.81,,47.59359,-54.27349
2019-02-10 02:20:00+00:00,273.0,278.0,12.31,16.31,,47.59359,-54.27349
2019-02-10 02:30:00+00:00,283.0,290.0,11.53,13.53,,47.59359,-54.27349
2019-02-10 02:40:00+00:00,286.0,279.0,12.83,16.34,,47.59359,-54.27349
2019-02-10 02:50:00+00:00,282.0,284.0,13.78,16.44,,47.59359,-54.27349
2019-02-10 03:00:00+00:00,282.0,288.0,12.71,15.96,,47.59359,-54.27349
2019-02-10 03:10:00+00:00,275.0,276.0,10.96,13.88,,47.59359,-54.27349
2019-02-10 03:20:00+00:00,280.0,282.0,11.94,14.6,,47.59359,-54.27349
2019-02-10 03:30:00+00:00,291.0,293.0,12.03,14.99,,47.59359,-54.27349
2019-02-10 03:40:00+00:00,282.0,274.0,11.0,13.11,,47.59359,-54.27349
2019-02-10 03:50:00+00:00,278.0,279.0,12.37,13.61,,47.59359,-54.27349
2019-02-10 04:00:00+00:00,288.0,287.0,13.26,15.74,,47.59359,-54.27349
2019-02-10 04:10:00+00:00,276.0,275.0,14.09,16.2,,47.59359,-54.27349
2019-02-10 04:20:00+00:00,288.0,287.0,7.22,10.37,,47.59359,-54.27349
2019-02-10 04:30:00+00:00,286.0,291.0,12.28,15.08,,47.59359,-54.27349
2019-02-10 04:40:00+00:00,286.0,287.0,11.67,13.71,,47.59359,-54.27349
2019-02-10 04:50:00+00:00,281.0,267.0,8.29,12.5,,47.59359,-54.27349
2019-02-10 05:00:00+00:00,290.0,290.0,11.11,13.31,,47.59359,-54.27349
2019-02-10 05:10:00+00:00,287.0,285.0,10.02,12.88,,47.59359,-54.27349
2019-02-10 05:20:00+00:00,298.0,301.0,10.87,13.15,,47.59359,-54.27349
2019-02-10 05:30:00+00:00,294.0,280.0,10.3,14.56,,47.59359,-54.27349
2019-02-10 05:40:00+00:00,289.0,295.0,13.44,15.41,,47.59359,-54.27349
2019-02-10 05:50:00+00:00,303.0,300.0,9.38,13.71,,47.59359,-54.27349
2019-02-10 06:00:00+00:00,292.0,283.0,10.21,14.81,,47.59359,-54.27349
2019-02-10 06:10:00+00:00,298.0,302.0,12.35,16.38,,47.59359,-54.27349
2019-02-10 06:20:00+00:00,293.0,286.0,9.73,12.95,,47.59359,-54.27349
2019-02-10 06:30:00+00:00,295.0,295.0,10.82,13.37,,47.59359,-54.27349
2019-02-10 06:40:00+00:00,288.0,279.0,8.02,12.33,,47.59359,-54.27349
2019-02-10 06:50:00+00:00,282.0,263.0,9.99,15.5,,47.59359,-54.27349
2019-02-10 07:00:00+00:00,294.0,282.0,8.89,11.83,,47.59359,-54.27349
2019-02-10 07:10:00+00:00,301.0,315.0,8.22,11.0,,47.59359,-54.27349
2019-02-10 07:20:00+00:00,294.0,301.0,13.17,20.07,,47.59359,-54.27349
2019-02-10 07:30:00+00:00,292.0,292.0,13.24,16.26,,47.59359,-54.27349
2019-02-10 07:40:00+00:00,295.0,296.0,13.22,18.86,,47.59359,-54.27349
2019-02-10 07:50:00+00:00,296.0,300.0,11.06,14.21,,47.59359,-54.27349
2019-02-10 08:00:00+00:00,292.0,285.0,9.47,12.96,,47.59359,-54.27349
2019-02-10 08:10:00+00:00,294.0,306.0,11.17,14.23,,47.59359,-54.27349
2019-02-10 08:20:00+00:00,293.0,285.0,10.98,14.04,,47.59359,-54.27349
2019-02-10 08:30:00+00:00,296.0,297.0,16.83,20.21,,47.59359,-54.27349
2019-02-10 08:40:00+00:00,297.0,303.0,11.73,14.04,,47.59359,-54.27349
2019-02-10 08:50:00+00:00,298.0,295.0,11.45,14.13,,47.59359,-54.27349
2019-02-10 09:00:00+00:00,303.0,304.0,10.38,12.39,,47.59359,-54.27349
2019-02-10 09:10:00+00:00,291.0,301.0,12.84,15.54,,47.59359,-54.27349
2019-02-10 09:20:00+00:00,304.0,312.0,10.27,13.43,,47.59359,-54.27349
2019-02-10 09:30:00+00:00,304.0,305.0,10.19,13.6,,47.59359,-54.27349
2019-02-10 09:40:00+00:00,293.0,297.0,9.97,13.48,,47.59359,-54.27349
2019-02-10 09:50:00+00:00,300.0,304.0,19.45,23.36,,47.59359,-54.27349
2019-02-10 10:00:00+00:00,303.0,308.0,15.54,18.25,,47.59359,-54.27349
2019-02-10 10:10:00+00:00,290.0,291.0,14.63,19.37,,47.59359,-54.27349
2019-02-10 10:20:00+00:00,293.0,300.0,14.25,19.58,,47.59359,-54.27349
2019-02-10 10:30:00+00:00,298.0,287.0,13.66,18.72,,47.59359,-54.27349
2019-02-10 10:40:00+00:00,287.0,283.0,10.05,14.15,,47.59359,-54.27349
2019-02-10 10:50:00+00:00,303.0,305.0,8.96,13.5,,47.59359,-54.27349
2019-02-10 11:00:00+00:00,303.0,305.0,11.77,14.77,,47.59359,-54.27349
2019-02-10 11:10:00+00:00,298.0,306.0,10.84,14.95,,47.59359,-54.27349
2019-02-10 11:20:00+00:00,301.0,299.0,13.84,16.67,,47.59359,-54.27349
2019-02-10 11:30:00+00:00,295.0,307.0,19.03,24.8,,47.59359,-54.27349
2019-02-10 11:40:00+00:00,292.0,304.0,18.52,23.13,,47.59359,-54.27349
2019-02-10 11:50:00+00:00,293.0,287.0,20.58,28.25,,47.59359,-54.27349
2019-02-10 12:00:00+00:00,292.0,302.0,19.4,23.68,,47.59359,-54.27349
2019-02-10 12:10:00+00:00,299.0,293.0,23.98,29.56,,47.59359,-54.27349
2019-02-10 12:20:00+00:00,296.0,295.0,21.9,28.62,,47.59359,-54.27349
2019-02-10 12:30:00+00:00,292.0,292.0,21.97,30.1,,47.59359,-54.27349
2019-02-10 12:40:00+00:00,300.0,298.0,17.1,21.7,,47.59359,-54.27349
2019-02-10 12:50:00+00:00,288.0,285.0,21.04,28.21,,47.59359,-54.27349
2019-02-10 13:00:00+00:00,292.0,293.0,19.53,23.35,,47.59359,-54.27349
2019-02-10 13:10:00+00:00,296.0,289.0,20.88,24.64,,47.59359,-54.27349
2019-02-10 13:20:00+00:00,294.0,297.0,19.2,22.69,,47.59359,-54.27349
2019-02-10 13:30:00+00:00,290.0,296.0,17.45,23.16,,47.59359,-54.27349
2019-02-10 13:40:00+00:00,292.0,300.0,14.26,17.36,,47.59359,-54.27349
2019-02-10 13:50:00+00:00,292.0,281.0,19.57,22.19,,47.59359,-54.27349
2019-02-10 14:00:00+00:00,294.0,287.0,20.35,24.93,,47.59359,-54.27349
2019-02-10 14:10:00+00:00,292.0,293.0,17.08,22.93,,47.59359,-54.27349
2019-02-10 14:20:00+00:00,293.0,293.0,20.63,25.97,,47.59359,-54.27349
2019-02-10 14:30:00+00:00,295.0,294.0,22.35,28.23,,47.59359,-54.27349
2019-02-10 14:40:00+00:00,291.0,280.0,19.73,24.57,,47.59359,-54.27349
2019-02-10 14:50:00+00:00,293.0,294.0,22.17,25.68,,47.59359,-54.27349
2019-02-10 15:00:00+00:00,299.0,305.0,20.88,24.08,,47.59359,-54.27349
2019-02-10 15:10:00+00:00,298.0,291.0,17.55,22.24,,47.59359,-54.27349
2019-02-10 15:20:00+00:00,300.0,299.0,17.64,22.63,,47.59359,-54.27349
2019-02-10 15:30:00+00:00,294.0,279.0,16.25,20.5,,47.59359,-54.27349
2019-02-10 15:40:00+00:00,286.0,286.0,19.34,22.59,,47.59359,-54.27349
2019-02-10 15:50:00+00:00,289.0,299.0,18.14,22.72,,47.59359,-54.27349
2019-02-10 16:00:00+00:00,302.0,296.0,17.26,20.94,,47.59359,-54.27349
2019-02-10 16:10:00+00:00,293.0,298.0,20.83,23.89,,47.59359,-54.27349
2019-02-10 16:20:00+00:00,298.0,307.0,18.16,24.48,,47.59359,-54.27349
2019-02-10 16:30:00+00:00,302.0,307.0,16.52,22.02,,47.59359,-54.27349
2019-02-10 16:40:00+00:00,305.0,307.0,18.93,23.51,,47.59359,-54.27349
2019-02-10 16:50:00+00:00,294.0,286.0,14.67,19.5,,47.59359,-54.27349
2019-02-10 17:00:00+00:00,284.0,283.0,16.66,21.33,,47.59359,-54.27349
2019-02-10 17:10:00+00:00,303.0,299.0,18.47,23.12,,47.59359,-54.27349
2019-02-10 17:20:00+00:00,294.0,295.0,17.87,22.07,,47.59359,-54.27349
2019-02-10 17:30:00+00:00,294.0,300.0,14.71,23.52,,47.59359,-54.27349
2019-02-10 17:40:00+00:00,305.0,305.0,14.99,17.86,,47.59359,-54.27349
2019-02-10 17:50:00+00:00,297.0,310.0,12.63,15.91,,47.59359,-54.27349
2019-02-10 18:00:00+00:00,293.0,293.0,14.13,22.01,,47.59359,-54.27349
2019-02-10 18:10:00+00:00,284.0,278.0,16.22,19.95,,47.59359,-54.27349
2019-02-10 18:20:00+00:00,284.0,285.0,14.05,21.27,,47.59359,-54.27349
2019-02-10 18:30:00+00:00,305.0,296.0,17.41,21.66,,47.59359,-54.27349
2019-02-10 18:40:00+00:00,287.0,281.0,11.91,14.05,,47.59359,-54.27349
2019-02-10 18:50:00+00:00,288.0,277.0,15.39,21.14,,47.59359,-54.27349
2019-02-10 19:00:00+00:00,289.0,290.0,12.46,15.07,,47.59359,-54.27349
2019-02-10 19:10:00+00:00,288.0,296.0,15.1,21.19,,47.59359,-54.27349
2019-02-10 19:20:00+00:00,298.0,304.0,12.52,16.13,,47.59359,-54.27349
2019-02-10 19:30:00+00:00,289.0,285.0,14.52,18.59,,47.59359,-54.27349
2019-02-10 19:40:00+00:00,294.0,297.0,13.45,17.57,,47.59359,-54.27349
2019-02-10 19:50:00+00:00,299.0,289.0,15.12,21.32,,47.59359,-54.27349
2019-02-10 20:00:00+00:00,299.0,311.0,13.32,18.01,,47.59359,-54.27349
2019-02-10 20:10:00+00:00,286.0,285.0,13.49,15.53,,47.59359,-54.27349
2019-02-10 20:20:00+00:00,296.0,294.0,14.59,20.17,,47.59359,-54.27349
2019-02-10 20:30:00+00:00,308.0,307.0,13.07,17.32,,47.59359,-54.27349
2019-02-10 20:40:00+00:00,299.0,304.0,15.87,25.3,,47.59359,-54.27349
2019-02-10 20:50:00+00:00,290.0,279.0,15.05,20.16,,47.59359,-54.27349
2019-02-10 21:00:00+00:00,298.0,287.0,10.68,14.71,,47.59359,-54.27349
2019-02-10 21:10:00+00:00,292.0,297.0,13.84,20.07,,47.59359,-54.27349
2019-02-10 21:20:00+00:00,314.0,313.0,12.14,16.78,,47.59359,-54.27349
2019-02-10 21:30:00+00:00,288.0,280.0,8.31,13.25,,47.59359,-54.27349
2019-02-10 21:40:00+00:00,307.0,307.0,12.75,16.39,,47.59359,-54.27349
2019-02-10 21:50:00+00:00,292.0,286.0,10.94,14.56,,47.59359,-54.27349
2019-02-10 22:00:00+00:00,300.0,297.0,12.03,17.22,,47.59359,-54.27349
2019-02-10 22:10:00+00:00,306.0,293.0,14.9,20.66,,47.59359,-54.27349
2019-02-10 22:20:00+00:00,307.0,309.0,15.2,20.78,,47.59359,-54.27349
2019-02-10 22:30:00+00:00,293.0,277.0,11.58,20.34,,47.59359,-54.27349
2019-02-10 22:40:00+00:00,298.0,304.0,12.87,17.42,,47.59359,-54.27349
2019-02-10 22:50:00+00:00,297.0,291.0,14.74,21.82,,47.59359,-54.27349
2019-02-10 23:00:00+00:00,292.0,293.0,13.5,18.65,,47.59359,-54.27349
2019-02-10 23:10:00+00:00,300.0,305.0,14.02,21.59,,47.59359,-54.27349
2019-02-10 23:20:00+00:00,298.0,291.0,13.94,20.55,,47.59359,-54.27349
2019-02-10 23:30:00+00:00,306.0,309.0,13.72,17.1,,47.59359,-54.27349
2019-02-10 23:40:00+00:00,300.0,307.0,13.3,20.27,,47.59359,-54.27349
2019-02-10 23:50:00+00:00,313.0,322.0,12.13,16.52,,47.59359,-54.27349
